DW4360 Weather Reports


time (UTC)temp
C
wind
direction
speed
KPH
gust
KPH
rain 1hr
cm
rain 24hr
cm
rain mn
cm
humidity
%
barometer
mb
20260902092857 16 186 0.0 0.0 0.00 0.00 0.00 78 1009.5
20260902091856 16 194 3.2 0.0 0.00 0.00 0.00 79 1009.5
20260902090856 16 194 0.0 0.0 0.00 0.00 0.00 79 1009.7
20260902085855 16 225 0.0 0.0 0.00 0.00 0.00 79 1009.7
20260902084853 16 225 0.0 0.0 0.00 0.00 0.00 79 1009.8
20260902083852 16 225 0.0 0.0 0.00 0.00 0.00 79 1009.8
20260902082851 16 225 0.0 0.0 0.00 0.00 0.00 79 1009.8
20260902081850 16 227 0.0 0.0 0.00 0.00 0.00 79 1009.8
20260902080849 16 227 0.0 0.0 0.00 0.00 0.00 78 1009.7
20260902075848 16 215 0.0 0.0 0.00 0.00 0.00 78 1009.6
20260902073846 17 215 4.8 0.0 0.00 0.00 0.00 77 1009.9
20260902072845 17 219 0.0 0.0 0.00 0.00 0.00 76 1010.0
20260902071844 17 273 4.8 0.0 0.00 0.00 0.00 75 1010.0
20260902070844 17 214 0.0 0.0 0.00 0.00 0.00 75 1010.2
20260902065842 17 213 0.0 0.0 0.00 0.00 0.00 75 1010.2
20260902064841 17 213 0.0 0.0 0.00 0.00 0.00 75 1010.3
20260902063840 17 208 0.0 0.0 0.00 0.00 0.00 74 1010.3
20260902062839 17 194 0.0 0.0 0.00 0.00 0.00 73 1010.3
20260902061838 17 190 0.0 0.0 0.00 0.00 0.00 73 1010.1
20260902060837 17 209 0.0 0.0 0.00 0.00 0.00 73 1010.3
20260902054835 17 177 0.0 0.0 0.00 0.00 0.00 73 1010.5
20260902053834 17 212 0.0 0.0 0.00 0.00 0.00 73 1010.5
20260902052833 17 209 0.0 0.0 0.00 0.00 0.00 73 1010.5
20260902051832 17 210 0.0 0.0 0.00 0.00 0.00 73 1010.6
20260902050832 17 236 0.0 0.0 0.00 0.00 0.00 73 1010.5
20260902044829 17 238 6.4 0.0 0.00 0.00 0.00 72 1010.6
20260902043828 17 256 0.0 0.0 0.00 0.00 0.00 72 1010.6
20260902042827 18 216 0.0 0.0 0.00 0.00 0.00 72 1010.4
20260902041826 18 253 0.0 0.0 0.00 0.00 0.00 71 1010.4
20260902035824 18 207 0.0 0.0 0.00 0.00 0.00 71 1010.4
20260902034823 18 199 0.0 0.0 0.00 0.00 0.00 70 1010.4
20260902033822 18 245 0.0 0.0 0.00 0.00 0.00 70 1010.3
20260902032821 18 232 3.2 0.0 0.00 0.00 0.00 69 1010.2
20260902031820 18 248 0.0 0.0 0.00 0.00 0.00 69 1010.2
20260902030819 18 254 0.0 0.0 0.00 0.00 0.00 69 1010.2
20260902025818 18 234 0.0 0.0 0.00 0.00 0.00 68 1010.1
20260902024817 18 201 0.0 0.0 0.00 0.00 0.00 68 1010.1
20260902023815 19 241 0.0 0.0 0.00 0.00 0.00 67 1010.1
20260902022815 19 236 0.0 0.0 0.00 0.00 0.00 67 1009.9
20260902021814 19 248 0.0 0.0 0.00 0.00 0.00 66 1009.9
20260902020813 20 205 0.0 0.0 0.00 0.00 0.00 65 1009.9
20260902015812 20 217 0.0 0.0 0.00 0.00 0.00 66 1009.9
20260902012809 20 246 3.2 0.0 0.00 0.00 0.00 63 1009.7
20260902011807 20 241 3.2 0.0 0.00 0.00 0.00 64 1009.7
20260902010807 20 246 4.8 0.0 0.00 0.00 0.00 63 1009.7
20260902004804 20 233 0.0 0.0 0.00 0.00 0.00 62 1009.5
20260902003803 21 207 6.4 0.0 0.00 0.00 0.00 62 1009.6
20260902002802 21 250 0.0 0.0 0.00 0.00 0.00 60 1009.4
20260902001802 22 256 0.0 0.0 0.00 0.00 0.00 58 1009.5
20260902000801 23 209 0.0 0.0 0.00 0.00 0.00 56 1009.4
20260901235759 23 59 0.0 0.0 0.00 0.00 0.00 55 1009.3
20260901232757 21 225 6.4 0.0 0.00 0.00 0.00 60 1009.6
20260901231756 22 239 1.6 0.0 0.00 0.00 0.00 61 1009.7
20260901230754 21 227 0.0 0.0 0.00 0.00 0.00 62 1009.7
20260901225754 21 242 0.0 0.0 0.00 0.00 0.00 62 1009.9
20260901224752 21 258 0.0 0.0 0.00 0.00 0.00 62 1009.9
20260901223751 21 223 0.0 0.0 0.00 0.00 0.00 64 1009.9
20260901222750 21 105 0.0 0.0 0.00 0.00 0.00 65 1009.9
20260901221750 20 210 0.0 0.0 0.00 0.00 0.00 68 1009.9
20260901220748 20 233 0.0 0.0 0.00 0.00 0.00 66 1009.9
20260901215747 20 242 8.0 0.0 0.00 0.00 0.00 67 1009.9
20260901214746 20 254 0.0 0.0 0.00 0.00 0.00 68 1009.9
20260901213746 20 254 0.0 0.0 0.00 0.00 0.00 68 1009.9
20260901212744 20 254 0.0 0.0 0.00 0.00 0.00 68 1010.0
20260901211743 20 254 0.0 0.0 0.00 0.00 0.00 67 1010.0
20260901210742 20 265 0.0 0.0 0.00 0.00 0.00 67 1010.0
20260901205741 20 331 0.0 0.0 0.00 0.00 0.00 68 1010.0
20260901204740 20 240 0.0 0.0 0.00 0.00 0.00 68 1010.0
20260901203739 20 239 0.0 0.0 0.00 0.00 0.00 67 1010.1
20260901202738 20 209 0.0 0.0 0.00 0.00 0.00 69 1010.1
20260901201737 20 250 0.0 0.0 0.00 0.00 0.00 70 1010.2
20260901200736 20 231 0.0 0.0 0.00 0.00 0.00 69 1010.2
20260901195735 20 223 0.0 0.0 0.00 0.00 0.00 70 1010.1
20260901194734 20 223 0.0 0.0 0.00 0.00 0.00 69 1010.2
20260901193733 20 195 0.0 0.0 0.00 0.00 0.00 68 1010.3
20260901192732 20 194 0.0 0.0 0.00 0.00 0.00 69 1010.5
20260901190730 19 248 0.0 0.0 0.00 0.00 0.00 73 1010.8
20260901185729 18 248 0.0 0.0 0.00 0.00 0.00 73 1010.7
20260901184728 18 194 3.2 0.0 0.00 0.00 0.00 74 1010.9
20260901183727 18 208 4.8 0.0 0.00 0.00 0.00 78 1010.9
20260901182726 17 216 0.0 0.0 0.00 0.00 0.00 78 1010.9
20260901181725 17 229 0.0 0.0 0.00 0.00 0.00 80 1011.0
20260901175723 16 229 0.0 0.0 0.00 0.00 0.00 83 1011.1
20260901174722 16 228 0.0 0.0 0.00 0.00 0.00 85 1011.2
20260901172720 16 227 0.0 0.0 0.00 0.00 0.00 86 1011.1
20260901171719 16 227 0.0 0.0 0.00 0.00 0.00 87 1011.0
20260901170718 15 244 8.0 0.0 0.00 0.00 0.00 88 1011.0
20260901165717 15 253 0.0 0.0 0.00 0.00 0.00 89 1010.9
20260901164716 15 251 0.0 0.0 0.00 0.00 0.00 88 1010.9
20260901163715 15 238 0.0 0.0 0.00 0.00 0.00 88 1010.9
20260901162714 15 223 0.0 0.0 0.00 0.00 0.00 87 1011.0
20260901161713 15 223 0.0 0.0 0.00 0.00 0.00 87 1010.9
20260901160712 15 223 0.0 0.0 0.00 0.00 0.00 86 1010.9
20260901155711 15 252 0.0 0.0 0.00 0.00 0.00 86 1010.9
20260901154710 15 253 3.2 0.0 0.00 0.00 0.00 84 1010.8
20260901153708 16 232 0.0 0.0 0.00 0.00 0.00 83 1010.9
20260901152708 16 248 3.2 0.0 0.00 0.00 0.00 83 1010.8
20260901151707 16 237 0.0 0.0 0.00 0.00 0.00 82 1010.7
20260901150705 15 237 1.6 0.0 0.00 0.00 0.00 82 1010.6
20260901144704 15 235 0.0 0.0 0.00 0.00 0.00 81 1010.4
20260901143703 15 235 0.0 0.0 0.00 0.00 0.00 81 1010.4
20260901142702 15 235 0.0 0.0 0.00 0.00 0.00 81 1010.4
20260901141700 15 235 0.0 0.0 0.00 0.00 0.00 81 1010.4
20260901140659 15 235 0.0 0.0 0.00 0.00 0.00 82 1010.3
20260901135658 15 235 0.0 0.0 0.00 0.00 0.00 82 1010.2
20260901134658 15 235 0.0 0.0 0.00 0.00 0.00 82 1010.2
20260901133657 15 219 0.0 0.0 0.00 0.00 0.00 82 1010.1
20260901132655 15 219 0.0 0.0 0.00 0.00 0.00 82 1010.2
20260901131655 15 219 0.0 0.0 0.00 0.00 0.00 82 1010.1
20260901130653 15 219 0.0 0.0 0.00 0.00 0.00 82 1010.1
20260901125653 15 219 0.0 0.0 0.00 0.00 0.00 82 1010.0
20260901124652 15 219 0.0 0.0 0.00 0.00 0.00 82 1010.0
20260901123651 15 219 0.0 0.0 0.00 0.00 0.00 82 1009.9
20260901122649 15 219 0.0 0.0 0.00 0.00 0.00 83 1010.0
20260901120648 15 219 0.0 0.0 0.00 0.00 0.00 83 1010.0
20260901114645 15 219 0.0 0.0 0.00 0.00 0.00 83 1010.0
20260901113644 15 219 0.0 0.0 0.00 0.00 0.00 83 1010.0
20260901112643 15 219 0.0 0.0 0.00 0.00 0.00 83 1010.0
20260901111643 15 219 0.0 0.0 0.00 0.00 0.00 83 1009.9
20260901110641 15 219 0.0 0.0 0.00 0.00 0.00 82 1009.8
20260901105640 15 219 0.0 0.0 0.00 0.00 0.00 82 1009.8
20260901104639 15 236 0.0 0.0 0.00 0.00 0.00 82 1009.7
20260901103638 15 207 0.0 0.0 0.00 0.00 0.00 81 1009.7
20260901102637 15 207 0.0 0.0 0.00 0.00 0.00 81 1009.6
20260901101636 15 239 3.2 0.0 0.00 0.00 0.00 81 1009.6
20260901100635 15 241 0.0 0.0 0.00 0.00 0.00 81 1009.6
20260901095634 15 248 3.2 0.0 0.00 0.00 0.00 80 1009.6
20260901094633 16 244 0.0 0.0 0.00 0.00 0.00 80 1009.5
20260901093632 16 245 0.0 0.0 0.00 0.00 0.00 79 1009.5